Regional Weather Roundup
Issued by NWS Upton, NY

Current Version | Previous Version | Text Only | Print | Product List | Glossary On
Versions: 1 2 3 4 5 6 7 8 9 10 11 12 13 14 15 16 17 18 19 20 21 22 23 24 25 26 27
000
ASUS41 KOKX 211309
RWROKX

REGIONAL WEATHER ROUNDUP
NATIONAL WEATHER SERVICE NEW YORK NY
900 AM EDT FRI JUL 21 2017

NOTE: "FAIR" INDICATES FEW OR NO CLOUDS BELOW 12,000 FEET WITH NO
SIGNIFICANT WEATHER AND/OR OBSTRUCTIONS TO VISIBILITY.

NYZ071-072-176-178-NJZ106-104-211400-
NEW YORK CITY METRO AREA

CITY           SKY/WX    TMP DP  RH WIND       PRES   REMARKS
Central Park   MOSUNNY   81  68  64 VRB3      29.95R
Bronx Bot Gard   N/A     79  66  65 W8        29.93S
LaGuardia APRT MOSUNNY   82  70  66 NW9       29.91R
Kennedy INTL   PTSUNNY   85  69  58 NW12      29.93R
Breezy Point     N/A     75 N/A N/A W7          N/A
Newark/Liberty PTSUNNY   83  69  62 W7        29.92R
Teterboro      PTSUNNY   81  69  67 W8        29.91R
$$

NYZ177-179-078>081-211400-
LONG ISLAND NEW YORK

CITY           SKY/WX    TMP DP  RH WIND       PRES   REMARKS
Jones Beach      N/A     79 N/A N/A NW12        N/A
Matinecock PT    N/A     77 N/A N/A W10         N/A
Farmingdale    MOSUNNY   82  68  62 NW9       29.91R
MacArthur/ISP  MOSUNNY   82  69  64 NW7       29.91R
Shirley        PTSUNNY   83  70  64 NW8       29.91R
Mt Sinai Harb    N/A    N/A N/A N/A NW2         N/A
Westhampton    PTSUNNY   81  68  64 VRB7      29.92R
East Hampton   FAIR      79  67  67 NW6       29.90R
Montauk          N/A     76  68  76 W8        29.90S
$$

NYZ052-065-067-211400-
HUDSON VALLEY

CITY           SKY/WX    TMP DP  RH WIND       PRES   REMARKS
White Plains   MOSUNNY   79  68  69 NW12      29.92R
Larchmont Harb   N/A     77 N/A N/A W8          N/A
Croton O-T Hud   N/A     81 N/A N/A NW10        N/A
Newburgh       SUNNY     75  72  88 W10       29.95S
Montgomery     SUNNY     78  70  76 W10       29.93F
Poughkeepsie   SUNNY     76  68  76 SW5       29.91S
Albany         MOSUNNY   74  63  68 CALM      29.93R
$$

NJZ001-105-106-008-010-013-015-019>022-104-211400-
NEW JERSEY

CITY           SKY/WX    TMP DP  RH WIND       PRES   REMARKS
Newark/Liberty PTSUNNY   83  69  62 W7        29.92R
Teterboro      PTSUNNY   81  69  67 W8        29.91R
Caldwell       MOSUNNY   78  68  71 VRB5      29.94R
Somerville     CLOUDY    78  75  90 CALM      29.93R
Linden         PTSUNNY   79  69  72 W3        29.93S
Perth Amboy      N/A     77 N/A N/A W6          N/A
Sussex         SUNNY     76  71  85 CALM      29.95S
Andover          N/A     78  71  79 VRB3      29.96R
Trenton        CLOUDY    77  73  87 W3        29.95R
Millville      SUNNY     85  75  72 NW7       29.94R HX  93
Atlantic City  SUNNY     85  73  67 N9        29.93R HX  91
Wrightstown    PTSUNNY   78  71  78 N3        29.93R
Toms River     MOSUNNY   81  71  71 MISG      29.95R
Belmar         NOT AVBL
$$

PAZ047>061-062-071-211400-
EASTERN PENNSYLVANIA

CITY           SKY/WX    TMP DP  RH WIND       PRES   REMARKS
Philadelphia   PTSUNNY   82  69  64 N8        29.95R
Allentown      SUNNY     79  71  76 NW3       29.96R
Scranton       MOSUNNY   74  70  87 VRB3      29.99R
$$

CTZ002-004>006-009-010-012-RIZ004-006-007-MAZ004-011-015-211400-
SOUTHERN NEW ENGLAND
 IN CT

CITY           SKY/WX    TMP DP  RH WIND       PRES   REMARKS
Bradley INTL   MOSUNNY   77  66  68 CALM      29.90S
Hartford       SUNNY     79  65  62 NW8       29.90R
Danbury        SUNNY     77  68  73 NW7       29.94R
Wtrbury/Oxford MOSUNNY   75  64  69 W5        29.94R
Bridgeport     MOSUNNY   79  68  69 N7        29.91R
Meriden        MOSUNNY   78  67  68 N3        29.91R
New Haven      MOSUNNY   76  68  76 W5        29.91R
Chester        FAIR      79  68  69 VRB6      29.92R
Groton         MOSUNNY   80  68  66 W5        29.88S
Wilimantic     SUNNY     77  70  79 CALM      29.90R

 IN RI

CITY           SKY/WX    TMP DP  RH WIND       PRES   REMARKS
Providence     MOSUNNY   80  65  59 NW10      29.88S
Block Island   PTSUNNY   73  67  81 W7        29.89S
Westerly       MOSUNNY   80  68  66 SW5       29.89S
 IN MA

CITY           SKY/WX    TMP DP  RH WIND       PRES   REMARKS
Boston         MOSUNNY   79  60  52 W10       29.85S
Worcester      SUNNY     74  60  61 NW9       29.91R
Westfield      SUNNY     78  65  63 CALM      29.90S
Provincetown   MOSUNNY   74  65  73 W8        29.85S
Nantucket      SUNNY     80  66  62 NW10      29.85S
$$

ANZ330-335-338-340-345-350-353-355-211400-
COASTAL MARINE OBSERVATIONS


STATION/POSITION TIME  SKY/WX   TEMP    WIND        PRES    VSBY  WAVE
                                AIR SEA DIR/SP/G                  HT/PER
                 (UTC)          (F)     (DEG/KT/KT) (MB)    (MI)  (FT/S)
NY HARB ENTRANCE 1150            75 74  280/  4/  4 1012.4          2/ 6
20 S FIRE ISLAND 1250            76 75  280/  8/  8 1012.5          3/ 6
GREAT SOUTH BAY  1230            80 81  300/  8/ 12   N/A
23 SSW MONTAUK P 1150            75 75              1012.2          4/ 6
15 E BARNEGAT LI 1230               78                N/A           3/13
HUDSON CANYON    1150            79 78  260/  6/  8 1012.0          4/ 5
KINGS POINT      1242            77 72  360/  8/ 10 1013.1
EXECUTION ROCKS  1245            79     310/ 10/ 16   N/A
CENTRAL LI SOUND 1200            75     310/  6/  6   N/A           0
EASTERN LI SOUND NOT AVBL
ROBBINS REEF     1242                   290/  8/ 11 1014.1
$$


>>>>>>>>>>>>>>>>>>>>>>>>>>>> KEY <<<<<<<<<<<<<<<<<<<<<<<<<<<
>                                                          <
>     SKY/WX - Sky Condition/Present Weather               <
>     TMP    - Temperature in Fahrenheit                   <
>     DP     - Dew Point in Fahrenheit                     <
>     RH     - Relative Humidity in Percent                <
>     WIND   - Direction (from) and Speed in MPH           <
>     PRES   - Mean Sea Level Pressure (inches of Hg)      <
>     WCI    - Wind Chill Index                            <
>     VSB    - VISIBILITY IN MILES                         <
>     HX     - HEAT INDEX                                  <
>     TC     - TEMPERATURE IN CELSIUS                      <
>     VRB    - VARIABLE WIND DIRECTION                     <
>                                                          <
>>>>>>>>>>>>>>>>>>>>>>>>>>>> KEY <<<<<<<<<<<<<<<<<<<<<<<<<<<




USA.gov is the U.S. government's official web portal to all federal, state and local government web resources and services.